www.pogodaiklimat.ru

Погода и климат >> Архив погоды >> Россия >> Забайкальский край >> Агинское


АРХИВ ПОГОДЫ в Агинском

Время (UTC), дата Ветер
(напр.,м/с)
 
Видим.   Явления Облачность Т
(С)
Тd
(С)
f
(%)
Тe
(С)
Тes
(С)
Комфортность P
(гПа)
Po
(гПа)
Тmin
(С)
Tmax
(С)
R
(мм)
R24
(мм)
S
(см)
06 19.08 С 1 20 км слаб. ливневой дождь 10/10 600 м
[Cb cap]
+17.3 +13.8 80 +18 +18 1006.8 930.3
09 19.08 З 1
{13}
20 км гроза, ливневой дождь 10/10 600 м
[Cb cap]
+13.6 +12.2 91 +14 +14 1007.4 929.9
12 19.08 В 3 10 км слаб. ливневой дождь {гроза} 10/10 100 м
[Cb cap]
+13.8 +12.8 94 +13 +13 1006.8 929.4 +21.5 12
15 19.08 В 4 4000 м ливневой дождь 10/10 100 м
[Cb cap]
+13.4 +12.6 95 +12 +12 1005.5 928.1
18 19.08 СВ 4 50 км в посл. час ливневой дождь 10/10 100 м
[Cb cap]
+13.5 +11.7 89 +12 +12 1004.1 926.8
21 19.08 С 2 20 км слаб. ливневой дождь 10/10 100 м
[Cb cap]
+12.9 +11.6 92 +12 +12 1003.6 926.2
00 20.08 С 2 50 км в посл. час дождь {ливн. осадки} 10/6 300 м
[Frnb As op]
+13.6 +11.5 87 +13 +13 1003.1 925.9 +12.8 12
03 20.08 С 3 50 км 10/8 300 м
[Frnb As op]
+15.5 +11.4 77 +15 +15 1002.5 925.8
06 20.08 С 4 50 км 10/8 600 м
[Cb cap Ac lent]
+17.9 +10.9 64 +18 +18 1001.1 925.1
09 20.08 С 4
{12}
50 км 10/6 600 м
[Cb cap Ac trans Ci ing]
+18.0 +10.9 63 +18 +18 1001.6 925.6
12 20.08 С 3
{10}
50 км 10/6 1000 м
[Sc diur, vesp Ci fib]
+16.7 +9.1 61 +17 +17 1003.1 926.6 +18.8
15 20.08 СЗ 2 50 км 10/4 1000 м
[Sc diur, vesp Ci fib]
+12.8 +8.8 77 +12 +12 1004.3 926.7
18 20.08 СЗ 3 50 км 10/3 1000 м
[Sc Ci fib]
+12.6 +8.3 75 +11 +11 1004.6 926.9
21 20.08 СЗ 4 50 км 4/3 1000 м
[Sc Ac lent]
+11.6 +7.7 77 +9 +9 1005.8 927.8
00 21.08 СЗ 5-10
{12}
50 км в посл. час ливневой дождь 9/9 1000 м
[Sc]
+12.8 +8.2 74 +11 +11 1006.1 928.4 +11.3 0.0
03 21.08 СЗ 5-12
{12}
50 км 10/10 1000 м
[Sc]
+13.8 +9.5 75 +12 +12 1006.6 929.1
06 21.08 СЗ 5-10
{12}
20 км слаб. ливневой дождь 9/9 600 м
[Cb cap]
+16.3 +11.0 71 +15 +16 1006.4 929.5
09 21.08 С 4
{12}
50 км {ливн. осадки} 9/9 600 м
[Cb cap]
+17.2 +9.9 62 +17 +17 1007.4 930.7
12 21.08 С 3
{11}
50 км в посл. час ливневой дождь 9/9 600 м
[Cb cap]
+14.8 +10.1 73 +14 +14 1009.7 932.2 +17.9 0.0
15 21.08 С 3 50 км 10/3 1000 м
[Sc Ci fib]
+13.7 +9.9 78 +13 +13 1011.1 933.3
18 21.08 С 3 50 км 10/3 600 м
[Cb cap Ac As]
+13.1 +9.4 78 +12 +12 1012.0 933.9
21 21.08 СЗ 1 50 км 9/9 600 м
[Cb cap]
+11.9 +9.3 84 +12 +12 1013.0 934.5
00 22.08 С 3 50 км 10/3 1000 м
[Sc Ac lent Ci fib]
+13.9 +9.3 74 +13 +14 1013.8 935.8 +11.7
03 22.08 С 3 50 км 9/9 600 м
[Sc]
+16.1 +10.3 68 +16 +17 1013.8 936.3
06 22.08 С 3 50 км 9/9 1000 м
[Cu Sc]
+18.5 +10.4 59 +19 +20 1013.1 936.3
09 22.08 СВ 2 50 км 9/6 600 м
[Cb cap Ac cuf]
+18.1 +11.3 64 +19 +19 1013.5 936.6
12 22.08 В 2 50 км 9/6 1000 м
[Sc Ac und]
+15.7 +12.3 80 +16 +16 1014.7 937.1 +19.7
15 22.08 Ю 1 50 км 9/3 1000 м
[Sc Ac und]
+13.2 +11.9 92 +13 +13 1015.9 937.6
18 22.08 ЮЗ 1 50 км 9/8 1000 м
[Sc Ac und]
+12.2 +10.6 90 +12 +12 1016.6 937.9
21 22.08 З 2 50 км 9/6 1000 м
[Sc Ac und]
+11.5 +10.0 90 +10 +10 1017.1 938.2
00 23.08 ЮЗ 2 50 км 9/0
[Ac trans]
+13.1 +10.8 86 +12 +14 1016.9 938.4 +11.2
03 23.08 ЮВ 1 50 км 10/3 1000 м
[Cu hum Ac trans Ci fib]
+20.7 +11.4 55 +24 +28 комфорт 1013.9 937.6
06 23.08 ЮЗ 2 50 км 8/4 1000 м
[Cu Sc Ac trans Ci fib]
+21.9 +10.5 48 +24 +28 комфорт 1012.0 936.2
09 23.08 Ю 1 50 км 5/5 1000 м
[Cu hum]
+22.7 +9.5 43 +24 +26 комфорт 1010.8 935.2
12 23.08 штиль 0 50 км 1/1 1000 м
[Sc diur, vesp]
+17.1 +12.4 74 +17 +17 1012.6 935.5 +23.3
15 23.08 СЗ 1 50 км ясно +10.8 +9.5 92 +10 +10 1015.0 936.1
18 23.08 З 1 50 км ясно +8.8 +7.8 93 +8 +8 1015.3 935.7
21 23.08 штиль 0 50 км 1/1 1000 м
[Sc]
+6.3 +5.6 95 +5 +5 1015.6 935.3
00 24.08 В 3 50 км 5/0
[Ac trans Ci fib]
+12.1 +10.1 88 +10 +13 1014.1 935.6 +6.2
03 24.08 ЮВ 4 50 км 4/3 1000 м
[Cu med, cong Ac trans]
+21.1 +13.6 62 +24 +28 комфорт 1010.5 934.7
06 24.08 Ю 4 50 км 5/5 1000 м
[Cu med, cong]
+23.9 +12.1 48 +26 +29 жарко 1008.4 933.3
09 24.08 Ю 3 50 км 4/3 1000 м
[Cu med, cong Ci fib]
+23.5 +10.2 43 +25 +26 комфорт 1007.1 932.0
12 24.08 СВ 1 50 км 3/3 1000 м
[Sc diur, vesp]
+19.0 +12.3 65 +21 +21 комфорт 1008.5 932.3 +24.1
15 24.08 В 1 50 км ясно +15.5 +12.1 80 +16 +16 1009.2 932.0
18 24.08 СЗ 1 50 км ясно +9.8 +8.5 92 +9 +9 1010.8 931.9
21 24.08 В 2 50 км 9/8 1000 м
[Sc Ac und]
+10.6 +9.5 93 +9 +9 1010.3 931.7
00 25.08 В 2 50 км 9/9 1000 м
[Sc]
+14.2 +11.9 86 +14 +14 1009.2 931.7 +9.0
03 25.08 Ю 1 20 км слаб. ливневой дождь 9/9 600 м
[Cb cap]
+15.8 +13.2 85 +16 +18 1009.2 932.1
06 25.08 ЮЗ 1 10 км слаб. ливневой дождь 10/10 600 м
[Cb cap]
+15.3 +13.6 90 +16 +16 1008.9 931.7
09 25.08 штиль 0 50 км в посл. час ливневой дождь 9/9 600 м
[Cb cap]
+15.3 +13.9 91 +15 +15 1008.4 931.3
12 25.08 З 1 10 км туман на расстоянии {ливн. осадки} 10/3 600 м
[Sc diur, vesp Ac As]
+14.1 +13.2 94 +14 +14 1008.9 931.4 +17.0 6
15 25.08 ЮЗ 1 4000 м туман на расстоянии 6/0
[Ac trans]
+11.9 +11.1 95 +12 +12 1009.6 931.4
18 25.08 З 1 50 км 9/3 1000 м
[Sc Ac und]
+12.1 +11.3 95 +12 +12 1009.3 931.2
21 25.08 З 1 50 км 8/0
[Ac lent Ci fib]
+8.9 +7.6 92 +8 +8 1010.1 931.0
00 26.08 ЮЗ 2 50 км 10/0
[Cs]
+11.4 +9.2 86 +10 +13 1009.2 930.9 +7.5

 

Местоположение метеостанции Агинское (Забайкальский край, Россия): широта 51.10 долгота 114.50 высота над уровнем моря 681 м.

В архиве по умолчанию представлена погода в Агинском за последнюю неделю. Архивные данные за месяц целиком и за предыдущие месяцы, начиная с января 2011 года, Вы можете получить, выбрав интересующий диапазон дат из раскрывающегося списка и нажав кнопку "Ввод!".


*Определитесь, кто Вы:
робот инопланетянин человек

Внимание! Время в таблицах - всемирное. Для получения местного времени необходимо прибавить поправку, которая равна 9 ч.

Смотрите также архив погоды в соседних городах и на ближайших метеорологических станциях:

Погода в Могойтуе (Забайкальский край, Россия) (38 км)
Погода в Курорт-Дарасуне (Забайкальский край, Россия) (57 км)
Погода в Карымской (Забайкальский край, Россия) (61 км)
Погода в Оловянной (Забайкальский край, Россия) (72 км)
Погода в Нижнем Цасучее (Забайкальский край, Россия) (78 км)
Погода в Дульдурге (Забайкальский край, Россия) (84 км)
Погода в Бырке (Забайкальский край, Россия) (111 км)
Погода в Акше (Забайкальский край, Россия) (130 км)
Погода в Чите (Забайкальский край, Россия) (133 км)
Погода в Шилке (Забайкальский край, Россия) (135 км)

Пояснения к столбцам:

Ветер - указаны скорость ветра в м/с - средняя за 10 мин, порывы в срок и между сроками (в фигурных скобках) и направление, откуда дует ветер: С - северный, СВ - северо-восточный, В - восточный, ЮВ - юго-восточный, Ю - южный, ЮЗ - юго-западный, З - западный, СЗ - северо-западный.
Видимость - горизонтальная дальность видимости в метрах или километрах. При видимости от 1 до 10 км при отсутствии осадков обычно наблюдается дымка, при ухудшении видимости до 1 км и менее - туман. В сухую погоду видимость может ухудшаться дымом, пылью или мглою.
Явления - указаны атмосферные явления, наблюдавшиеся в срок или в последний час перед сроком; фигурными скобками обозначены явления, наблюдавшиеся между сроками (за 1-3 часа до срока); квадратными скобками обозначены град или гололедные отложения с указанием их диаметра в мм.
Облачность - указаны через наклонную черту общая и нижняя облачность в баллах и высота нижней границы облаков в метрах; квадратными скобками обозначены формы облаков: Ci - перистые, Cs - перисто-слоистые, Cc - перисто-кучевые, Ac - высококучевые, As - высокослоистые, Sc - слоисто-кучевые, Ns - слоисто-дождевые, Cu - кучевые, Cb - кучево-дождевые. Подробнее классификацию облаков см. в Атласе облаков (PDF).
T - Температура воздуха - температура, измеренная на высоте 2 м над землей.
Td - Температура точки росы - температура, при понижении до которой содержащийся в воздухе водяной пар достигнет насыщения.
f - Относительная влажность воздуха - влажноcть воздуха, измеренная на высоте 2 м над землей.
Te - Эффективная температура - температура, которую ощущает одетый по сезону человек в тени. Характеристика душности погоды. При расчете учитывается влияние влажности воздуха и скорости ветра на теплоощущения человека.
Tes - Эффективная температура на солнце - температура, которую ощущает человек, с поправкой на солнечный нагрев. Характеристика знойности погоды. Зависит от высоты солнца над горизонтом, облачности и скорости ветра. Ночью, в пасмурную погоду, а также при ветре 12 м/с и более поправка равна нулю.
P - Атмосферное давление - приведенное к уровню моря атмосферное давление.
Po - Атмосферное давление - измеренное на уровне метеостанции атмосферное давление.
Tmin - Минимальная температура - минимум температуры воздуха на высоте 2 м над землей.
Tmax - Максимальная температура - максимум температуры воздуха на высоте 2 м над землей.
R - Количество осадков - Количество выпавших осадков за период времени, мм. При наведении курсора мыши на число - период времени, за который выпало указанное количество осадков.
R24 - Количество осадков - Количество выпавших осадков за 24 часа, мм.
S - Снежный покров - Высота снежного покрова, см. При наведении курсора мыши на число - состояние снежного покрова и степень покрытия местности в баллах.